Precipitable_Water
1.72 1.73 1.74 1.76 1.78 1.79 1.72 1.85 1.77 1.72 1.69 1.61 1.61 1.68 1.69 1.65 1.70 1.63 1.66 1.59 1.53 1.59 1.60 1.63 1.62 1.46 1.35 1.26 1.21 1.18 1.17 1.13 1.14 1.13 1.17 1.24 1.26 1.45 1.45 1.59 1.59 1.62 1.66 1.80 1.91 1.94 1.94 1.93 1.93 1.93 1.96 1.90 1.83 1.73 1.66 1.62 1.61 1.61 1.65 1.69 1.64 1.61 1.59 1.55 1.50 1.45 1.43 1.45 1.49 1.53 1.54 1.58 1.61 1.63 1.65 1.65 1.65 1.65 1.63 1.62 1.60 1.59 1.62 1.68 1.71
1.69 1.71 1.72 1.79 1.78 1.85 1.78 1.85 1.92 1.86 1.74 1.83 1.71 1.62 1.60 1.60 1.62 1.56 1.52 1.51 1.50 1.56 1.58 1.52 1.47 1.36 1.35 1.26 1.27 1.18 1.13 1.11 1.09 1.09 1.12 1.16 1.26 1.40 1.44 1.44 1.48 1.57 1.65 1.70 1.84 1.92 1.95 1.92 1.91 1.91 1.92 1.97 1.93 1.90 1.83 1.77 1.71 1.68 1.72 1.76 1.72 1.67 1.66 1.64 1.57 1.52 1.47 1.44 1.46 1.49 1.52 1.54 1.56 1.58 1.60 1.60 1.61 1.60 1.60 1.57 1.54 1.54 1.57 1.61 1.66
1.76 1.86 1.83 1.71 1.70 1.84 1.93 1.81 1.83 1.83 1.81 1.72 1.87 1.64 1.63 1.61 1.60 1.54 1.51 1.50 1.47 1.56 1.55 1.44 1.39 1.36 1.30 1.29 1.26 1.22 1.17 1.12 1.05 1.07 1.14 1.22 1.28 1.41 1.48 1.46 1.44 1.51 1.59 1.67 1.71 1.84 1.92 1.94 1.91 1.90 1.89 1.92 1.95 1.93 1.90 1.87 1.86 1.81 1.74 1.70 1.69 1.71 1.71 1.64 1.59 1.56 1.52 1.48 1.45 1.45 1.47 1.50 1.53 1.57 1.58 1.58 1.57 1.57 1.57 1.58 1.56 1.54 1.55 1.60 1.65
1.77 1.77 1.72 1.68 1.69 1.70 1.82 1.87 1.81 1.91 1.79 1.79 1.79 1.65 1.61 1.62 1.62 1.59 1.52 1.52 1.55 1.55 1.45 1.38 1.36 1.35 1.26 1.29 1.25 1.20 1.16 1.06 1.14 1.11 0.99 0.95 1.04 1.15 1.28 1.49 1.48 1.44 1.52 1.56 1.63 1.70 1.81 1.90 1.92 1.89 1.89 1.89 1.91 1.92 1.93 1.88 1.86 1.87 1.85 1.81 1.74 1.72 1.71 1.69 1.64 1.58 1.55 1.52 1.48 1.46 1.44 1.45 1.48 1.52 1.56 1.59 1.60 1.61 1.62 1.63 1.64 1.63 1.62 1.63 1.67
1.77 1.71 1.72 1.70 1.71 1.70 1.75 1.86 1.86 1.82 1.94 1.87 1.69 1.81 1.76 1.65 1.66 1.67 1.63 1.57 1.49 1.43 1.39 1.35 1.34 1.34 1.30 1.29 1.18 1.17 1.08 1.08 1.16 1.17 1.18 1.12 1.06 1.18 1.21 1.33 1.46 1.53 1.45 1.44 1.49 1.58 1.69 1.77 1.86 1.88 1.88 1.88 1.89 1.90 1.90 1.91 1.90 1.87 1.86 1.88 1.86 1.80 1.75 1.71 1.68 1.66 1.64 1.58 1.54 1.54 1.52 1.46 1.43 1.44 1.47 1.52 1.56 1.58 1.60 1.61 1.64 1.66 1.68 1.68 1.71
1.75 1.78 1.73 1.80 1.88 1.86 1.78 1.83 1.83 1.75 1.81 1.80 1.74 1.79 1.69 1.62 1.61 1.60 1.55 1.49 1.43 1.39 1.31 1.28 1.31 1.30 1.28 1.26 1.21 1.14 1.02 1.12 1.15 1.14 1.15 1.23 1.24 1.11 1.08 1.12 1.30 1.48 1.53 1.48 1.38 1.42 1.51 1.67 1.77 1.84 1.86 1.86 1.87 1.90 1.90 1.92 1.90 1.88 1.88 1.91 1.90 1.89 1.87 1.86 1.81 1.75 1.71 1.66 1.62 1.57 1.53 1.52 1.51 1.48 1.46 1.48 1.52 1.54 1.56 1.57 1.58 1.61 1.65 1.68 1.71
1.80 1.79 1.76 1.69 1.72 1.75 1.80 1.82 1.77 1.76 1.69 1.80 1.74 1.73 1.65 1.58 1.59 1.54 1.53 1.48 1.42 1.36 1.28 1.25 1.23 1.23 1.25 1.24 1.22 1.14 1.02 1.12 1.11 1.20 1.31 1.26 1.23 1.30 1.20 1.10 1.10 1.19 1.38 1.53 1.52 1.41 1.35 1.42 1.65 1.78 1.83 1.83 1.84 1.87 1.94 1.93 1.89 1.89 1.89 1.89 1.89 1.91 1.91 1.91 1.92 1.87 1.78 1.70 1.67 1.64 1.61 1.57 1.52 1.48 1.46 1.47 1.50 1.53 1.55 1.56 1.57 1.57 1.60 1.65 1.69
1.80 1.78 1.72 1.66 1.66 1.77 1.84 1.93 1.92 1.69 1.69 1.77 1.74 1.77 1.67 1.57 1.59 1.59 1.45 1.40 1.36 1.25 1.19 1.09 1.12 1.19 1.22 1.24 1.23 1.13 1.06 1.09 1.12 1.19 1.26 1.22 1.32 1.37 1.39 1.38 1.28 1.18 1.23 1.27 1.46 1.56 1.51 1.39 1.42 1.65 1.77 1.80 1.82 1.87 1.83 1.77 1.79 1.83 1.89 1.90 1.90 1.89 1.90 1.90 1.90 1.90 1.86 1.78 1.72 1.68 1.66 1.66 1.64 1.61 1.56 1.49 1.45 1.46 1.50 1.53 1.55 1.56 1.57 1.59 1.64
1.74 1.76 1.63 1.66 1.72 1.69 1.70 1.80 1.88 1.67 1.71 1.73 1.67 1.78 1.59 1.48 1.52 1.53 1.47 1.35 1.27 1.17 1.06 0.90 0.94 1.07 1.12 1.16 1.24 1.12 1.06 1.05 1.14 1.09 1.27 1.31 1.32 1.37 1.36 1.42 1.57 1.47 1.31 1.18 1.19 1.40 1.50 1.43 1.35 1.42 1.61 1.77 1.82 1.85 1.85 1.80 1.77 1.81 1.84 1.86 1.88 1.89 1.91 1.90 1.91 1.91 1.90 1.87 1.81 1.76 1.73 1.71 1.69 1.67 1.67 1.65 1.61 1.57 1.54 1.54 1.54 1.55 1.55 1.56 1.58
1.71 1.65 1.65 1.65 1.69 1.75 1.73 1.73 1.86 1.75 1.74 1.76 1.69 1.59 1.51 1.47 1.45 1.48 1.40 1.22 1.05 0.94 0.84 0.88 0.96 0.96 0.97 1.05 1.16 1.11 1.07 1.12 1.13 1.18 1.21 1.25 1.32 1.22 1.31 1.33 1.53 1.58 1.54 1.45 1.44 1.51 1.57 1.52 1.48 1.41 1.42 1.55 1.70 1.80 1.82 1.80 1.77 1.77 1.74 1.74 1.75 1.77 1.81 1.86 1.88 1.90 1.92 1.92 1.87 1.80 1.75 1.72 1.71 1.71 1.71 1.70 1.69 1.67 1.65 1.65 1.64 1.61 1.60 1.59 1.59
1.78 1.69 1.63 1.66 1.65 1.69 1.67 1.70 1.73 1.70 1.65 1.62 1.59 1.53 1.49 1.47 1.40 1.32 1.19 1.03 0.83 0.79 0.83 0.83 0.81 0.93 1.00 1.13 1.17 1.12 1.08 1.11 1.15 1.18 1.14 1.08 1.10 1.10 1.28 1.33 1.29 1.40 1.45 1.56 1.56 1.61 1.60 1.74 1.75 1.67 1.62 1.55 1.52 1.58 1.70 1.75 1.76 1.74 1.72 1.71 1.71 1.72 1.75 1.75 1.78 1.80 1.84 1.87 1.88 1.85 1.79 1.74 1.73 1.74 1.73 1.69 1.68 1.68 1.68 1.67 1.66 1.66 1.65 1.64 1.63
1.86 1.76 1.71 1.63 1.63 1.71 1.77 1.77 1.77 1.68 1.70 1.60 1.52 1.43 1.40 1.36 1.26 1.12 0.89 0.82 0.93 0.98 0.97 0.96 0.95 0.97 1.01 1.04 1.13 1.12 1.09 1.07 1.10 1.14 1.12 1.12 1.04 0.99 1.07 1.16 1.22 1.24 1.27 1.40 1.47 1.57 1.59 1.60 1.61 1.76 1.79 1.72 1.74 1.65 1.59 1.60 1.67 1.72 1.73 1.72 1.72 1.72 1.72 1.72 1.71 1.74 1.78 1.82 1.85 1.85 1.81 1.76 1.74 1.74 1.73 1.70 1.67 1.69 1.70 1.70 1.70 1.67 1.65 1.66 1.66
1.76 1.76 1.71 1.71 1.66 1.67 1.83 1.90 1.82 1.68 1.61 1.50 1.46 1.39 1.30 1.12 0.99 0.88 0.85 0.87 0.96 1.06 1.04 0.94 0.90 0.92 1.08 1.04 1.08 1.17 1.14 1.12 1.03 1.11 1.08 1.08 1.08 0.98 1.01 1.00 1.03 1.11 1.21 1.25 1.26 1.31 1.37 1.43 1.50 1.59 1.65 1.66 1.66 1.69 1.65 1.68 1.58 1.55 1.62 1.65 1.67 1.70 1.71 1.72 1.72 1.72 1.74 1.79 1.84 1.84 1.81 1.77 1.76 1.75 1.74 1.72 1.70 1.71 1.73 1.74 1.74 1.73 1.71 1.67 1.66
1.72 1.75 1.74 1.67 1.59 1.53 1.59 1.82 1.73 1.57 1.52 1.43 1.31 1.21 1.12 0.94 0.86 0.93 1.08 1.00 0.95 1.01 1.09 0.97 0.99 1.02 0.98 0.94 0.91 1.03 1.06 1.13 1.06 1.06 1.05 1.03 1.05 1.00 0.97 0.94 0.95 0.99 1.05 1.15 1.19 1.19 1.22 1.27 1.29 1.37 1.42 1.50 1.54 1.61 1.67 1.66 1.69 1.55 1.46 1.50 1.56 1.61 1.64 1.65 1.68 1.72 1.76 1.79 1.82 1.84 1.85 1.84 1.78 1.74 1.75 1.76 1.77 1.77 1.77 1.78 1.77 1.74 1.72 1.71 1.69
1.68 1.68 1.67 1.62 1.54 1.59 1.64 1.81 1.57 1.51 1.35 1.23 1.18 1.07 0.91 0.88 1.03 0.99 1.05 1.12 1.10 1.15 1.13 1.08 0.91 0.99 0.96 0.72 0.71 0.76 1.07 1.04 1.06 1.03 1.04 1.03 1.00 0.98 0.97 0.95 0.93 0.97 1.01 1.04 1.05 1.08 1.11 1.11 1.14 1.17 1.22 1.28 1.33 1.43 1.48 1.61 1.54 1.44 1.38 1.36 1.38 1.45 1.52 1.59 1.66 1.70 1.72 1.74 1.78 1.80 1.87 1.91 1.89 1.83 1.78 1.78 1.79 1.78 1.78 1.79 1.80 1.79 1.77 1.75 1.75
1.71 1.75 1.65 1.60 1.54 1.53 1.70 1.56 1.48 1.38 1.24 1.09 1.02 0.88 0.90 0.98 1.09 1.13 1.14 1.04 1.07 1.15 1.22 1.17 1.01 0.94 0.83 0.85 0.80 0.69 0.63 0.90 1.00 1.05 1.02 1.08 1.01 1.00 0.97 0.93 0.96 0.93 0.96 0.94 0.97 1.04 1.06 1.04 1.05 1.02 1.04 1.05 1.11 1.22 1.27 1.31 1.36 1.33 1.28 1.23 1.23 1.30 1.37 1.43 1.49 1.56 1.63 1.70 1.74 1.75 1.79 1.85 1.88 1.87 1.84 1.84 1.85 1.83 1.83 1.83 1.87 1.88 1.85 1.80 1.78
1.71 1.69 1.61 1.60 1.61 1.57 1.46 1.39 1.30 1.26 1.18 1.00 0.89 0.89 0.93 1.07 1.15 1.20 1.21 1.12 1.08 1.07 1.10 1.11 1.08 1.01 0.86 0.75 0.78 0.82 0.82 0.99 0.95 1.04 1.13 1.16 1.04 1.04 0.97 0.93 0.94 0.90 0.91 0.87 0.93 0.92 0.97 0.97 0.98 1.01 1.00 1.02 1.05 1.06 1.08 1.13 1.20 1.22 1.14 1.03 1.00 1.03 1.09 1.20 1.31 1.40 1.46 1.51 1.57 1.65 1.74 1.80 1.85 1.88 1.89 1.88 1.91 1.93 1.90 1.88 1.88 1.88 1.87 1.83 1.79
1.54 1.51 1.56 1.60 1.46 1.40 1.34 1.29 1.27 1.14 1.06 0.95 0.91 0.95 0.92 1.13 1.26 1.23 1.16 1.16 1.08 0.99 0.92 1.09 1.02 1.01 0.97 0.82 0.87 0.94 0.94 1.07 0.91 0.89 1.02 1.09 1.05 0.94 0.95 0.94 0.97 0.97 0.94 0.95 0.87 0.88 0.86 0.91 0.91 0.93 0.91 0.97 0.98 1.05 1.05 1.07 1.11 1.03 0.99 0.97 0.93 0.93 0.95 0.98 1.06 1.15 1.24 1.32 1.40 1.47 1.52 1.60 1.70 1.81 1.88 1.91 1.92 1.93 1.92 1.87 1.82 1.79 1.79 1.80 1.78
1.50 1.48 1.47 1.47 1.40 1.36 1.30 1.23 1.18 1.12 1.06 0.96 0.91 0.86 1.16 1.27 1.30 1.22 1.14 1.15 1.06 0.94 0.80 0.94 1.06 0.99 1.10 1.06 1.06 1.03 0.99 0.91 0.82 0.91 0.84 0.91 0.99 0.90 1.04 0.99 0.95 0.93 0.98 0.94 0.97 0.95 0.90 0.86 0.86 0.88 0.93 0.90 0.93 0.91 1.00 1.02 1.00 0.96 0.89 0.88 0.87 0.86 0.87 0.91 0.94 0.98 1.02 1.07 1.15 1.23 1.31 1.39 1.47 1.56 1.67 1.79 1.87 1.89 1.87 1.86 1.86 1.84 1.83 1.82 1.79
1.46 1.45 1.47 1.46 1.43 1.39 1.35 1.27 1.20 1.08 1.09 0.96 0.93 1.05 1.18 1.22 1.25 1.22 1.15 1.10 1.06 0.93 0.90 1.01 0.82 1.05 1.15 1.17 1.16 1.16 1.12 1.03 1.00 0.83 0.81 0.70 0.84 0.89 0.91 0.98 0.98 0.97 0.95 0.94 0.97 0.99 0.94 0.91 0.89 0.86 0.90 0.93 0.90 0.87 0.89 0.92 0.95 1.01 0.88 0.76 0.76 0.75 0.75 0.77 0.82 0.86 0.87 0.91 0.95 1.00 1.06 1.14 1.22 1.29 1.38 1.49 1.63 1.78 1.87 1.89 1.88 1.87 1.86 1.84 1.81
1.46 1.44 1.48 1.47 1.44 1.41 1.38 1.29 1.23 1.11 1.01 1.05 1.00 1.14 1.13 1.13 1.14 1.10 1.10 1.07 1.04 1.00 0.90 0.85 0.92 1.05 1.15 1.21 1.21 1.10 1.12 1.06 1.03 0.93 0.75 0.80 0.72 0.83 0.86 0.96 0.95 1.04 1.08 1.07 1.01 1.02 1.01 1.02 0.94 0.89 0.90 0.94 0.95 0.93 0.94 0.95 0.91 0.93 0.87 0.79 0.75 0.75 0.71 0.70 0.71 0.75 0.74 0.78 0.81 0.85 0.89 0.92 0.96 1.04 1.11 1.19 1.27 1.35 1.49 1.69 1.82 1.86 1.88 1.87 1.84
1.41 1.43 1.43 1.46 1.45 1.43 1.39 1.34 1.21 1.05 1.05 1.11 1.17 1.19 1.13 1.03 1.03 1.05 1.04 1.00 0.99 0.94 0.90 0.97 0.99 1.12 1.09 1.17 1.12 1.08 1.00 0.88 0.92 1.02 0.99 0.91 0.77 0.80 0.80 0.83 0.84 0.96 1.05 1.05 1.06 1.03 1.05 1.08 1.04 1.01 0.95 0.91 0.94 0.97 1.00 0.97 0.98 0.92 0.86 0.75 0.77 0.75 0.73 0.72 0.71 0.71 0.72 0.70 0.71 0.74 0.78 0.81 0.83 0.85 0.89 0.94 1.00 1.06 1.12 1.22 1.37 1.52 1.66 1.74 1.78
1.36 1.42 1.43 1.46 1.49 1.46 1.38 1.31 1.20 1.10 1.11 1.14 1.17 1.13 1.14 1.09 1.04 1.03 1.00 0.94 0.96 0.97 0.89 0.86 0.95 1.00 1.05 1.00 1.06 1.04 0.94 0.91 0.95 0.95 0.94 0.80 0.82 0.80 0.82 0.86 0.88 0.81 0.87 0.98 0.99 1.04 1.05 1.10 1.11 1.05 1.03 0.94 0.95 0.95 0.99 0.99 0.95 0.88 0.82 0.82 0.79 0.77 0.75 0.75 0.71 0.71 0.71 0.70 0.70 0.71 0.72 0.73 0.74 0.77 0.79 0.81 0.82 0.85 0.89 0.94 1.04 1.16 1.27 1.39 1.49
1.32 1.37 1.43 1.50 1.51 1.46 1.36 1.29 1.19 1.14 1.23 1.15 1.21 1.16 1.15 1.16 1.11 1.07 1.00 0.95 0.97 0.92 0.96 1.04 0.98 0.97 0.91 1.10 1.05 0.98 1.03 0.97 0.98 0.99 0.93 0.86 0.85 0.83 0.83 0.87 0.88 0.91 1.02 1.06 1.15 1.18 1.15 1.12 1.13 1.10 1.07 1.03 1.01 1.01 0.96 0.87 0.94 1.00 0.97 0.91 0.86 0.84 0.81 0.77 0.76 0.73 0.71 0.71 0.70 0.70 0.71 0.73 0.73 0.73 0.73 0.74 0.76 0.78 0.79 0.81 0.84 0.90 1.00 1.09 1.17
1.35 1.32 1.42 1.48 1.51 1.42 1.33 1.27 1.22 1.16 1.23 1.28 1.22 1.22 1.11 1.17 1.14 1.07 1.03 1.00 0.96 0.95 0.94 0.98 1.04 1.00 1.06 1.06 1.06 1.05 1.03 1.07 1.01 0.95 1.01 0.99 0.91 0.85 0.90 0.93 0.85 0.91 1.01 1.06 1.02 1.11 1.13 1.14 1.14 1.10 1.08 1.06 1.04 0.98 0.96 0.90 0.95 1.02 0.96 0.90 0.88 0.86 0.87 0.84 0.81 0.77 0.75 0.73 0.72 0.72 0.71 0.71 0.72 0.73 0.73 0.74 0.74 0.74 0.75 0.76 0.78 0.80 0.83 0.90 0.97
1.44 1.43 1.46 1.49 1.43 1.43 1.36 1.32 1.31 1.24 1.22 1.26 1.25 1.22 1.19 1.17 1.18 1.09 1.04 1.02 1.01 1.02 0.95 0.95 0.96 0.99 0.94 0.98 1.02 1.05 1.06 1.07 1.07 1.07 1.04 1.04 1.00 0.98 0.95 0.96 0.98 0.94 1.01 1.02 1.13 1.06 1.09 1.15 1.20 1.15 1.11 1.10 1.08 1.06 1.07 1.07 1.06 1.10 1.07 1.02 0.97 0.93 0.94 0.93 0.89 0.83 0.79 0.76 0.74 0.73 0.73 0.74 0.74 0.74 0.74 0.73 0.73 0.74 0.75 0.75 0.76 0.77 0.79 0.81 0.85
1.52 1.56 1.54 1.44 1.45 1.47 1.47 1.40 1.34 1.32 1.29 1.28 1.25 1.25 1.25 1.21 1.23 1.21 1.13 1.12 1.08 1.07 1.06 1.06 1.06 1.05 1.07 1.09 1.08 1.03 0.96 0.94 0.92 0.95 0.99 0.99 0.99 1.00 1.00 0.93 0.95 1.01 0.99 1.03 0.99 0.99 1.00 1.08 1.13 1.13 1.13 1.15 1.22 1.25 1.22 1.22 1.21 1.20 1.13 1.09 1.08 1.08 1.08 1.07 1.02 0.97 0.91 0.84 0.79 0.75 0.72 0.71 0.72 0.73 0.73 0.72 0.72 0.72 0.73 0.74 0.74 0.75 0.76 0.77 0.79
1.65 1.65 1.64 1.53 1.46 1.45 1.45 1.41 1.37 1.36 1.35 1.30 1.29 1.30 1.31 1.26 1.24 1.25 1.18 1.20 1.12 1.06 1.11 1.15 1.14 1.15 1.13 1.13 1.14 1.14 1.22 1.24 1.22 1.19 1.15 1.13 1.11 1.12 1.09 1.04 0.95 0.90 0.98 0.90 0.91 0.92 1.01 0.96 1.04 1.12 1.20 1.18 1.19 1.21 1.26 1.26 1.27 1.27 1.25 1.23 1.22 1.19 1.17 1.11 1.05 0.99 0.96 0.92 0.84 0.77 0.74 0.72 0.72 0.73 0.74 0.73 0.72 0.72 0.72 0.72 0.72 0.72 0.72 0.73 0.75
1.66 1.69 1.64 1.57 1.48 1.43 1.40 1.37 1.35 1.37 1.38 1.33 1.32 1.35 1.39 1.34 1.29 1.28 1.26 1.30 1.25 1.17 1.19 1.16 1.18 1.18 1.18 1.17 1.14 1.16 1.18 1.20 1.17 1.13 1.12 1.14 1.16 1.18 1.17 1.10 1.08 0.93 0.83 0.83 0.84 0.87 0.95 0.98 0.91 1.00 1.11 1.22 1.26 1.30 1.28 1.31 1.35 1.34 1.32 1.29 1.25 1.21 1.18 1.14 1.10 1.06 1.00 0.95 0.88 0.82 0.76 0.74 0.74 0.75 0.75 0.75 0.75 0.75 0.74 0.74 0.74 0.74 0.73 0.72 0.72
1.65 1.68 1.66 1.56 1.47 1.41 1.35 1.34 1.36 1.34 1.34 1.37 1.35 1.37 1.41 1.40 1.40 1.36 1.36 1.34 1.29 1.27 1.24 1.21 1.17 1.14 1.11 1.08 1.08 1.10 1.15 1.15 1.13 1.15 1.15 1.19 1.18 1.19 1.21 1.18 1.14 1.01 0.96 0.86 0.87 0.97 0.97 1.03 1.02 0.99 1.10 1.14 1.20 1.25 1.31 1.33 1.35 1.31 1.27 1.26 1.23 1.23 1.19 1.15 1.12 1.08 1.04 0.99 0.93 0.85 0.80 0.76 0.75 0.75 0.76 0.76 0.77 0.77 0.77 0.76 0.76 0.76 0.77 0.76 0.75
1.70 1.69 1.65 1.59 1.49 1.40 1.37 1.33 1.36 1.37 1.36 1.41 1.41 1.39 1.44 1.41 1.42 1.41 1.39 1.36 1.32 1.29 1.29 1.24 1.21 1.15 1.06 1.01 1.07 1.08 1.12 1.13 1.14 1.15 1.15 1.16 1.19 1.25 1.25 1.20 1.18 1.13 1.05 0.98 0.85 0.96 1.04 0.97 1.03 1.08 1.06 1.10 1.14 1.14 1.16 1.22 1.24 1.21 1.19 1.19 1.20 1.18 1.18 1.18 1.14 1.09 1.04 0.99 0.95 0.90 0.84 0.79 0.77 0.76 0.76 0.76 0.77 0.77 0.77 0.77 0.77 0.78 0.78 0.79 0.78
1.73 1.72 1.64 1.56 1.50 1.44 1.38 1.36 1.38 1.40 1.40 1.39 1.44 1.48 1.50 1.48 1.47 1.42 1.44 1.42 1.37 1.33 1.30 1.30 1.24 1.20 1.13 1.07 1.07 1.08 1.12 1.14 1.15 1.17 1.19 1.24 1.29 1.29 1.22 1.17 1.15 1.14 1.09 1.00 0.89 0.81 0.96 0.94 0.94 0.97 1.03 1.05 1.09 1.07 1.07 1.12 1.17 1.20 1.19 1.19 1.22 1.22 1.21 1.19 1.16 1.13 1.10 1.07 1.04 0.99 0.95 0.90 0.86 0.83 0.82 0.79 0.78 0.78 0.78 0.78 0.78 0.78 0.80 0.81 0.82
1.66 1.64 1.63 1.58 1.54 1.46 1.41 1.37 1.37 1.36 1.39 1.38 1.42 1.50 1.51 1.50 1.49 1.47 1.44 1.41 1.37 1.36 1.34 1.29 1.23 1.19 1.16 1.10 1.09 1.14 1.19 1.20 1.21 1.21 1.26 1.33 1.26 1.20 1.23 1.24 1.19 1.18 1.12 1.01 0.87 0.83 0.86 0.97 0.97 0.94 0.96 0.99 0.99 1.06 1.06 1.08 1.11 1.16 1.18 1.16 1.17 1.17 1.18 1.20 1.22 1.20 1.15 1.11 1.07 1.05 1.03 1.01 0.98 0.93 0.89 0.85 0.83 0.81 0.80 0.79 0.79 0.79 0.79 0.80 0.82
1.67 1.62 1.59 1.57 1.58 1.51 1.39 1.36 1.31 1.35 1.37 1.41 1.44 1.44 1.39 1.39 1.43 1.47 1.45 1.39 1.30 1.29 1.30 1.28 1.26 1.22 1.21 1.17 1.15 1.19 1.23 1.21 1.24 1.28 1.35 1.28 1.18 1.14 1.14 1.14 1.11 1.08 1.12 1.03 0.97 0.87 0.80 0.91 0.91 0.96 0.93 0.97 0.92 1.02 1.02 1.04 1.05 1.10 1.11 1.14 1.15 1.16 1.16 1.15 1.12 1.12 1.12 1.12 1.09 1.06 1.05 1.05 1.02 0.99 0.96 0.94 0.91 0.88 0.85 0.84 0.85 0.85 0.84 0.83 0.83
1.60 1.59 1.56 1.53 1.49 1.42 1.30 1.27 1.32 1.35 1.41 1.41 1.44 1.42 1.37 1.36 1.33 1.36 1.42 1.42 1.38 1.32 1.30 1.29 1.28 1.29 1.23 1.21 1.18 1.21 1.25 1.24 1.24 1.23 1.22 1.18 1.19 1.16 1.16 1.19 1.16 1.12 1.11 1.10 1.01 0.92 0.87 0.83 0.90 0.89 0.92 0.94 0.91 0.94 1.01 1.06 1.11 1.12 1.11 1.14 1.16 1.18 1.14 1.10 1.09 1.10 1.10 1.11 1.10 1.08 1.06 1.05 1.04 1.02 1.01 0.99 0.98 0.95 0.92 0.90 0.90 0.89 0.87 0.85 0.84
1.51 1.51 1.53 1.44 1.43 1.44 1.28 1.16 1.21 1.27 1.33 1.39 1.38 1.36 1.37 1.35 1.32 1.31 1.36 1.36 1.35 1.31 1.26 1.23 1.28 1.29 1.26 1.25 1.26 1.27 1.27 1.22 1.21 1.20 1.22 1.22 1.23 1.26 1.21 1.21 1.18 1.15 1.15 1.14 1.14 1.07 1.02 0.93 0.96 1.00 1.05 1.01 0.99 1.03 1.07 1.09 1.10 1.13 1.15 1.19 1.20 1.15 1.14 1.14 1.13 1.14 1.16 1.15 1.14 1.11 1.09 1.07 1.05 1.04 1.03 1.02 1.00 0.98 0.96 0.93 0.91 0.91 0.88 0.87 0.86
1.47 1.45 1.49 1.44 1.41 1.42 1.26 1.13 1.13 1.17 1.23 1.27 1.27 1.28 1.30 1.32 1.29 1.29 1.36 1.36 1.32 1.26 1.23 1.23 1.28 1.29 1.28 1.27 1.29 1.30 1.31 1.25 1.25 1.25 1.23 1.19 1.20 1.22 1.22 1.23 1.27 1.24 1.22 1.25 1.25 1.20 1.05 0.99 1.08 1.27 1.29 1.22 1.20 1.12 1.13 1.06 1.05 1.09 1.15 1.15 1.15 1.15 1.14 1.17 1.19 1.19 1.17 1.16 1.15 1.13 1.13 1.11 1.08 1.04 1.03 1.02 1.01 1.01 0.99 0.97 0.95 0.92 0.89 0.89 0.88
1.35 1.30 1.31 1.32 1.31 1.32 1.23 1.13 1.15 1.16 1.16 1.18 1.20 1.21 1.25 1.28 1.24 1.25 1.32 1.36 1.34 1.27 1.23 1.23 1.26 1.31 1.31 1.32 1.34 1.33 1.30 1.25 1.26 1.28 1.26 1.23 1.24 1.21 1.21 1.27 1.39 1.46 1.42 1.44 1.51 1.40 1.32 1.25 1.10 1.04 1.05 1.09 1.11 1.06 1.11 1.13 1.08 1.07 1.10 1.15 1.16 1.17 1.18 1.14 1.16 1.19 1.19 1.17 1.14 1.14 1.15 1.12 1.08 1.04 1.00 0.99 0.99 1.01 1.01 1.00 0.98 0.94 0.91 0.89 0.86
1.19 1.15 1.21 1.30 1.37 1.40 1.27 1.19 1.14 1.12 1.14 1.16 1.15 1.16 1.20 1.24 1.25 1.24 1.28 1.31 1.30 1.26 1.24 1.24 1.27 1.29 1.28 1.30 1.34 1.38 1.37 1.32 1.28 1.25 1.27 1.28 1.32 1.33 1.30 1.25 1.27 1.32 1.27 1.30 1.37 1.31 1.22 1.14 1.06 1.00 0.99 1.05 1.06 0.99 1.13 1.20 1.17 1.16 1.10 1.08 1.05 1.08 1.07 1.05 1.04 1.08 1.10 1.11 1.11 1.09 1.07 1.06 1.06 1.04 1.01 1.00 1.00 1.01 1.01 1.00 0.98 0.94 0.91 0.87 0.85
1.15 1.17 1.20 1.19 1.26 1.32 1.25 1.16 1.14 1.14 1.14 1.14 1.13 1.16 1.19 1.24 1.26 1.25 1.27 1.31 1.28 1.24 1.20 1.22 1.26 1.28 1.30 1.33 1.40 1.43 1.46 1.44 1.38 1.35 1.34 1.34 1.33 1.29 1.31 1.33 1.34 1.33 1.30 1.26 1.26 1.26 1.20 1.14 1.07 1.00 1.02 1.03 1.04 1.07 1.11 1.09 1.06 1.11 1.17 1.07 0.95 0.94 0.97 1.05 1.08 1.05 1.08 1.11 1.07 1.05 1.03 1.04 1.05 1.05 1.03 1.01 1.03 1.05 1.06 1.03 0.99 0.95 0.91 0.87 0.85
1.17 1.14 1.16 1.18 1.15 1.16 1.20 1.19 1.17 1.15 1.12 1.11 1.14 1.16 1.19 1.25 1.31 1.29 1.28 1.29 1.29 1.25 1.25 1.26 1.27 1.30 1.33 1.37 1.45 1.50 1.51 1.51 1.49 1.48 1.44 1.42 1.40 1.35 1.36 1.40 1.41 1.41 1.33 1.27 1.26 1.25 1.22 1.17 1.10 1.07 0.97 0.92 0.98 1.00 0.96 0.95 1.00 1.05 1.09 1.08 0.99 0.97 0.99 1.01 1.06 1.12 1.11 1.06 1.02 1.00 1.00 1.03 1.01 1.01 1.02 0.99 1.01 1.05 1.06 1.03 1.01 0.98 0.94 0.91 0.88
1.22 1.20 1.20 1.21 1.19 1.14 1.17 1.23 1.22 1.19 1.17 1.18 1.16 1.18 1.23 1.29 1.31 1.32 1.30 1.29 1.29 1.26 1.25 1.25 1.25 1.28 1.26 1.31 1.37 1.38 1.47 1.57 1.60 1.56 1.52 1.49 1.48 1.49 1.45 1.43 1.42 1.40 1.37 1.31 1.28 1.25 1.21 1.16 1.09 1.05 0.96 0.93 0.96 0.94 0.92 0.96 1.01 1.01 0.99 1.02 0.95 0.95 0.98 0.98 1.00 1.06 1.08 1.00 0.93 0.91 0.97 1.05 1.02 1.00 1.00 0.97 1.02 1.06 1.03 0.99 0.92 0.88 0.87 0.87 0.84
1.28 1.23 1.23 1.22 1.21 1.22 1.22 1.24 1.25 1.28 1.25 1.21 1.19 1.20 1.23 1.28 1.33 1.32 1.31 1.33 1.30 1.28 1.27 1.27 1.25 1.23 1.21 1.24 1.28 1.33 1.41 1.45 1.47 1.46 1.44 1.44 1.40 1.36 1.38 1.44 1.48 1.44 1.36 1.31 1.28 1.28 1.24 1.17 1.11 1.08 1.03 0.95 0.95 1.01 0.99 0.96 0.99 1.02 1.01 1.00 0.95 0.91 0.89 0.86 0.80 0.91 1.03 0.97 0.90 0.86 0.86 0.95 0.98 0.92 0.95 0.95 0.97 0.96 0.90 0.84 0.86 0.87 0.86 0.84 0.82
1.38 1.37 1.27 1.20 1.21 1.22 1.24 1.30 1.33 1.32 1.29 1.25 1.22 1.23 1.23 1.26 1.31 1.34 1.38 1.38 1.34 1.31 1.30 1.29 1.28 1.24 1.23 1.24 1.27 1.30 1.30 1.33 1.37 1.38 1.40 1.40 1.40 1.39 1.39 1.40 1.43 1.47 1.46 1.37 1.28 1.24 1.23 1.16 1.10 1.09 1.05 0.99 1.01 1.06 1.08 1.06 1.06 1.09 1.01 0.95 0.92 0.90 0.88 0.84 0.80 0.75 0.87 0.93 0.85 0.81 0.77 0.87 0.91 0.86 0.83 0.86 0.87 0.84 0.83 0.84 0.85 0.82 0.80 0.79 0.78
1.52 1.42 1.31 1.22 1.20 1.21 1.24 1.28 1.28 1.30 1.32 1.33 1.29 1.27 1.24 1.25 1.29 1.34 1.42 1.47 1.40 1.35 1.34 1.33 1.31 1.30 1.29 1.27 1.29 1.37 1.40 1.36 1.37 1.37 1.36 1.37 1.39 1.40 1.41 1.41 1.41 1.43 1.42 1.40 1.39 1.34 1.30 1.23 1.16 1.10 1.08 1.06 1.01 1.04 1.09 1.07 1.13 1.04 0.97 0.91 0.90 0.87 0.84 0.77 0.74 0.77 0.82 0.92 0.83 0.75 0.72 0.79 0.83 0.79 0.77 0.81 0.82 0.84 0.83 0.83 0.78 0.78 0.77 0.75 0.73
1.51 1.41 1.34 1.26 1.24 1.25 1.28 1.31 1.30 1.33 1.37 1.41 1.37 1.30 1.28 1.28 1.31 1.39 1.43 1.46 1.46 1.37 1.35 1.37 1.38 1.35 1.32 1.31 1.30 1.31 1.35 1.37 1.40 1.43 1.44 1.42 1.42 1.42 1.40 1.39 1.39 1.41 1.41 1.38 1.36 1.35 1.33 1.26 1.19 1.10 1.15 1.16 1.05 1.09 1.12 1.10 1.04 0.93 0.87 0.82 0.82 0.78 0.76 0.74 0.78 0.79 0.82 0.90 0.82 0.78 0.72 0.74 0.82 0.80 0.75 0.77 0.79 0.79 0.81 0.78 0.75 0.73 0.70 0.66 0.67
1.46 1.40 1.36 1.30 1.28 1.30 1.32 1.36 1.36 1.37 1.39 1.44 1.41 1.36 1.32 1.30 1.34 1.42 1.45 1.47 1.43 1.39 1.39 1.41 1.42 1.37 1.33 1.31 1.31 1.33 1.42 1.47 1.49 1.45 1.43 1.44 1.44 1.43 1.41 1.39 1.39 1.39 1.37 1.34 1.33 1.32 1.29 1.23 1.21 1.19 1.17 1.16 1.14 1.10 1.07 1.05 0.98 0.92 0.86 0.80 0.80 0.81 0.82 0.84 0.84 0.85 0.84 0.91 0.90 0.83 0.65 0.72 0.81 0.76 0.71 0.74 0.73 0.72 0.72 0.70 0.67 0.66 0.68 0.73 0.78
1.46 1.45 1.44 1.40 1.36 1.37 1.41 1.44 1.43 1.42 1.44 1.45 1.41 1.38 1.34 1.37 1.40 1.43 1.45 1.45 1.41 1.40 1.38 1.37 1.34 1.35 1.39 1.39 1.42 1.45 1.47 1.46 1.45 1.41 1.40 1.41 1.36 1.30 1.25 1.25 1.27 1.29 1.29 1.31 1.24 1.16 1.15 1.16 1.16 1.14 1.14 1.13 1.06 1.01 0.99 0.95 0.91 0.90 0.89 0.90 0.90 0.86 0.80 0.76 0.74 0.82 0.80 0.86 0.87 0.78 0.68 0.71 0.76 0.67 0.65 0.70 0.70 0.66 0.66 0.63 0.62 0.67 0.74 0.82 0.89
1.42 1.42 1.45 1.48 1.51 1.51 1.51 1.50 1.50 1.48 1.45 1.48 1.49 1.49 1.45 1.43 1.44 1.46 1.45 1.43 1.42 1.38 1.33 1.29 1.35 1.46 1.46 1.46 1.41 1.40 1.40 1.38 1.40 1.35 1.32 1.29 1.23 1.16 1.15 1.16 1.18 1.17 1.13 1.14 1.15 1.15 1.14 1.13 1.12 1.11 1.09 1.03 0.98 0.94 0.90 0.93 0.94 0.94 0.90 0.83 0.76 0.79 0.76 0.73 0.76 0.79 0.77 0.80 0.79 0.75 0.65 0.62 0.66 0.67 0.64 0.66 0.65 0.60 0.58 0.64 0.73 0.81 0.90 0.96 1.00
1.42 1.44 1.47 1.50 1.52 1.54 1.54 1.54 1.53 1.52 1.48 1.49 1.53 1.54 1.50 1.45 1.45 1.44 1.41 1.38 1.37 1.33 1.29 1.40 1.52 1.48 1.38 1.36 1.38 1.38 1.34 1.29 1.24 1.22 1.21 1.19 1.12 1.10 1.08 1.05 1.01 0.97 0.98 1.03 1.06 1.11 1.15 1.14 1.12 1.08 1.02 0.96 0.92 0.91 0.94 0.98 0.96 0.95 0.90 0.80 0.80 0.79 0.75 0.76 0.72 0.73 0.74 0.73 0.69 0.72 0.63 0.62 0.64 0.64 0.60 0.61 0.60 0.60 0.67 0.75 0.85 0.92 0.98 1.04 1.13
1.47 1.48 1.50 1.49 1.52 1.55 1.56 1.53 1.53 1.48 1.46 1.54 1.57 1.56 1.50 1.46 1.46 1.48 1.44 1.37 1.33 1.27 1.19 1.34 1.45 1.40 1.32 1.33 1.31 1.26 1.20 1.21 1.19 1.18 1.17 1.11 1.05 0.99 0.95 0.90 0.87 0.88 0.96 1.03 1.01 1.00 1.02 1.02 1.02 1.01 0.96 0.92 0.95 1.00 1.02 0.99 0.96 0.96 0.98 0.94 0.92 0.85 0.80 0.77 0.70 0.68 0.62 0.60 0.65 0.69 0.58 0.58 0.59 0.59 0.54 0.47 0.52 0.67 0.80 0.84 0.90 0.99 1.08 1.17 1.23
Wind_Speed
1 1 1 2 2 2 2 3 3 3 3 4 4 4 4 5 5 6 6 7 8 8 9 9 9 9 9 9 9 9 9 9 8 8 7 7 6 6 5 5 5 5 5 6 6 6 7 8 8 9 10 11 12 12 12 12 12 11 11 11 11 11 10 10 10 9 9 9 9 9 9 9 8 8 8 8 7 7 7 7 7 7 6 6 6
2 1 1 2 2 2 3 3 3 3 3 4 4 4 5 5 6 6 7 7 8 8 8 8 9 9 8 9 9 9 10 9 9 8 7 7 6 5 5 5 4 4 5 5 6 6 6 7 8 9 10 10 11 12 12 13 13 13 12 12 12 12 12 11 11 11 10 10 10 10 10 10 10 9 9 9 9 8 8 8 8 7 7 7 6
2 2 2 2 2 3 3 3 3 3 3 4 4 5 5 6 6 7 7 8 8 8 8 8 8 8 9 9 9 9 10 10 9 8 7 7 6 6 5 5 4 4 4 5 5 5 6 7 7 8 9 10 11 11 12 13 13 14 14 13 13 13 13 12 12 12 12 11 11 11 11 11 11 10 10 10 10 9 9 9 9 8 8 8 7
3 3 3 3 3 3 3 4 4 4 4 4 5 5 6 6 6 7 8 8 8 8 9 8 8 9 9 9 9 9 10 10 9 8 7 6 6 6 5 5 5 4 4 5 5 5 6 7 7 8 9 10 11 12 12 12 13 14 14 14 14 14 14 13 13 13 13 13 12 12 12 12 12 12 11 11 11 11 10 10 10 9 9 8 8
4 4 4 4 4 4 4 5 5 4 5 5 6 6 6 7 7 7 8 8 8 9 9 8 9 9 9 10 10 10 10 10 9 9 8 7 6 6 5 5 5 5 5 5 5 6 6 6 7 8 8 9 10 11 12 13 13 13 14 14 15 15 15 15 15 14 14 14 14 13 13 13 13 13 13 12 12 12 11 11 11 10 10 10 9
4 4 4 4 5 5 5 5 5 5 5 6 6 6 7 8 8 8 8 8 9 9 8 8 9 9 9 10 10 10 10 10 9 9 8 7 7 6 6 5 5 5 5 5 5 6 6 7 7 8 8 9 10 11 12 12 13 13 13 14 15 15 16 16 16 16 15 15 15 15 14 14 14 14 13 13 13 13 13 12 12 11 11 11 10
4 4 5 5 5 6 5 5 5 5 6 7 7 7 7 8 8 9 9 9 9 9 9 9 9 9 9 9 10 10 10 9 9 8 8 7 7 7 6 6 6 6 6 6 6 6 6 7 8 8 9 9 10 10 11 12 13 13 13 14 14 15 15 17 17 17 17 16 16 16 16 15 15 15 14 14 14 14 14 14 13 13 12 12 11
5 5 5 6 6 6 6 6 6 6 7 7 8 8 8 9 9 9 9 10 10 10 10 10 10 9 9 9 9 10 10 9 9 8 8 8 7 7 7 6 6 6 6 6 6 6 6 7 7 8 9 9 10 10 10 11 12 13 14 14 14 15 15 16 18 19 18 18 18 18 17 17 16 16 15 15 15 15 15 15 15 14 14 13 13
6 5 6 6 6 6 7 7 7 7 7 8 8 8 9 9 9 9 10 11 11 11 11 11 11 10 10 9 9 10 9 9 9 9 8 8 7 7 7 7 7 6 6 6 6 7 7 7 7 8 8 9 9 10 10 11 12 13 14 14 15 15 16 16 17 18 20 20 19 19 19 19 19 18 17 17 16 16 16 16 16 16 15 15 14
6 6 7 7 7 8 8 8 8 8 9 9 9 9 10 10 10 10 11 12 12 12 12 11 11 11 10 10 10 10 9 9 9 9 9 8 8 7 7 7 7 7 6 6 6 6 7 7 7 7 8 8 9 9 10 11 12 12 13 14 15 16 16 17 17 18 19 20 21 20 20 20 20 20 19 19 18 18 17 17 17 17 17 16 16
7 7 7 8 8 9 9 9 10 10 10 10 10 10 10 10 10 11 12 13 12 12 12 11 11 11 10 11 10 9 9 9 9 9 9 9 8 8 8 7 7 7 6 6 6 6 6 6 7 7 7 7 8 9 10 11 12 12 13 14 15 16 17 17 18 18 19 20 21 21 21 21 21 21 21 21 20 20 20 19 18 18 18 17 17
8 8 8 9 9 10 10 11 11 11 11 11 10 10 10 11 12 13 12 12 11 11 11 11 11 10 10 10 9 9 9 9 9 8 8 9 8 8 9 8 7 7 7 7 7 6 6 6 6 7 7 7 8 8 9 10 11 12 13 14 15 16 17 17 18 18 19 20 21 22 23 22 22 22 22 22 21 21 21 21 20 20 19 19 19
9 9 10 10 11 11 11 11 11 11 10 10 10 10 11 12 12 12 11 11 11 11 10 10 10 10 10 9 9 8 8 8 8 8 8 8 8 8 8 8 8 7 7 7 7 7 7 7 7 7 7 7 8 7 8 9 10 10 11 12 13 14 16 17 17 18 19 20 21 22 23 23 23 23 23 23 23 22 22 22 22 22 21 21 20
11 11 11 11 11 11 11 11 10 10 10 10 11 11 12 12 12 11 11 10 10 10 10 10 10 9 9 9 9 8 7 8 8 8 8 7 7 7 7 8 8 8 8 8 8 7 7 7 7 8 8 8 8 8 8 8 9 9 10 11 12 13 14 15 16 17 18 20 21 22 22 24 24 24 24 24 24 24 23 23 23 23 23 22 22
11 11 11 11 11 11 11 10 10 9 10 10 11 11 11 11 11 11 11 10 10 9 9 10 10 9 9 9 9 8 7 8 7 7 7 7 7 6 7 8 8 8 8 8 8 8 8 8 8 8 9 9 9 8 9 9 9 10 11 11 12 12 13 14 15 16 17 19 20 21 22 23 24 25 25 25 25 25 25 24 24 24 24 24 24
12 11 11 11 11 11 10 9 9 9 10 10 11 11 11 11 11 11 10 10 10 8 8 9 10 10 10 9 9 8 7 7 6 6 7 7 7 6 6 7 7 8 8 7 8 7 8 8 8 9 9 9 9 9 9 10 10 11 11 12 12 13 13 14 15 15 16 18 19 20 21 22 24 25 26 26 26 26 26 26 25 25 25 25 25
11 11 11 10 10 10 9 9 9 9 9 10 10 10 10 11 11 10 10 10 10 9 8 9 9 9 10 10 9 8 8 7 7 8 8 7 7 6 7 7 7 7 8 8 8 7 8 8 9 9 9 9 10 10 10 10 10 11 12 12 13 13 14 15 15 16 16 17 18 19 20 21 23 24 25 26 27 27 27 27 26 26 26 26 26
10 10 9 9 9 8 8 8 8 9 9 10 10 10 11 11 10 10 10 10 10 10 9 9 9 9 10 10 9 9 9 9 9 9 8 8 8 8 8 8 7 7 7 7 8 8 8 9 9 9 9 10 10 10 10 11 11 11 12 13 13 13 14 15 16 16 17 18 18 19 19 20 21 22 23 25 26 27 28 28 28 27 27 27 27
9 9 8 8 8 7 7 8 8 8 9 10 10 10 11 11 10 10 11 11 10 10 10 10 9 9 10 10 9 9 9 9 10 10 9 9 9 9 8 7 8 8 7 8 8 8 9 10 10 10 10 10 10 10 10 11 11 12 12 13 13 14 14 15 15 16 17 18 19 19 20 20 21 21 22 23 25 26 27 28 28 28 28 28 28
8 7 7 7 7 7 8 8 9 9 10 10 10 10 11 10 10 11 11 11 10 10 11 10 10 9 9 9 10 10 10 9 10 10 11 10 10 9 9 8 9 9 9 9 9 9 10 10 11 11 11 11 11 11 11 11 11 12 12 13 14 14 15 15 16 16 17 18 18 19 20 20 21 22 23 23 24 25 26 27 28 29 29 29 29
7 7 7 7 7 8 9 9 10 10 10 10 10 10 11 11 11 11 11 11 11 11 11 11 11 10 9 10 10 10 11 10 10 11 11 11 10 10 10 11 11 10 9 10 10 10 11 11 12 12 12 12 12 12 12 12 13 13 13 14 15 15 16 16 17 17 18 18 19 19 20 21 21 22 23 24 25 25 26 27 28 29 29 29 30
7 7 8 8 8 8 9 10 10 10 10 10 10 11 11 11 11 11 11 11 11 11 11 11 11 11 10 10 10 11 11 11 11 11 11 12 12 12 12 12 12 11 11 11 11 12 12 12 13 13 13 13 13 13 13 13 14 14 15 15 16 16 17 17 18 18 19 20 20 20 21 21 22 22 23 24 24 25 26 27 28 29 30 31 31
8 8 8 8 8 8 9 10 10 10 10 11 11 11 12 12 11 12 12 11 12 12 12 12 12 12 12 11 12 12 12 13 13 12 12 13 14 14 14 14 14 13 13 13 13 13 13 13 13 14 14 14 14 14 14 15 15 15 15 16 16 17 18 18 19 19 20 21 21 22 22 23 23 24 24 24 25 25 26 27 28 29 30 31 32
8 8 9 8 8 9 9 10 11 11 11 11 12 12 12 12 12 12 13 12 12 12 12 13 13 13 13 13 13 13 13 13 14 14 14 15 15 15 15 15 15 15 14 14 14 13 13 13 14 14 14 14 15 15 16 16 16 16 16 17 17 18 18 19 20 20 21 21 22 23 24 24 24 25 25 26 26 26 27 27 28 29 30 31 32
8 8 9 8 8 9 10 10 11 11 11 11 12 12 13 13 13 13 14 14 14 14 14 14 14 14 14 14 14 15 14 14 15 15 15 15 15 16 16 16 15 15 15 15 15 15 15 15 14 15 15 15 16 16 17 17 17 16 18 18 18 19 19 20 20 21 22 22 23 23 24 25 26 26 26 27 27 28 28 28 28 29 30 31 31
9 9 9 9 9 10 10 11 11 12 12 12 13 13 13 13 14 14 15 15 15 15 15 15 15 15 16 16 16 16 16 15 16 16 16 16 17 17 17 17 17 17 17 16 16 16 16 16 15 15 16 17 17 17 17 18 18 18 19 20 20 20 20 20 21 21 22 23 23 24 25 26 27 28 28 28 28 29 29 29 30 30 30 31 31
9 9 9 10 10 11 11 12 12 13 13 13 14 14 14 15 15 15 15 16 16 16 16 16 17 17 17 17 17 17 17 17 17 17 17 17 17 17 17 17 17 17 17 17 17 17 17 17 17 17 17 17 18 18 19 20 20 20 21 22 22 22 22 22 23 23 23 24 24 25 25 26 27 28 29 29 30 30 30 30 31 31 31 31 32
10 10 10 11 11 12 13 14 14 15 15 16 15 15 15 16 16 16 16 16 17 17 18 18 18 18 18 18 18 18 18 18 18 18 18 18 18 18 18 18 18 18 18 18 18 18 18 18 18 18 18 18 19 20 21 22 22 22 23 23 23 24 24 24 25 25 25 25 25 26 26 27 28 29 30 31 31 31 31 31 31 32 32 32 33
11 11 11 12 12 13 14 15 16 16 17 17 17 17 17 17 17 17 17 17 18 18 19 19 19 19 19 19 19 19 19 19 19 19 18 18 18 18 18 18 18 18 18 19 19 19 19 19 19 19 19 20 21 22 23 23 24 24 24 25 25 26 26 26 27 27 27 27 27 27 28 28 29 30 31 32 32 32 32 32 33 33 33 33 33
13 13 13 13 14 15 15 16 16 17 18 19 19 19 19 19 19 18 18 18 18 19 19 19 20 20 19 20 20 20 20 20 20 19 19 19 19 19 19 19 18 19 19 19 20 20 20 20 20 21 21 22 24 24 25 25 26 26 27 27 27 28 28 28 28 29 29 29 30 30 30 30 30 31 32 33 34 34 34 34 34 34 34 34 34
14 15 15 15 15 16 17 17 18 18 19 20 20 21 21 21 20 20 20 20 19 20 20 20 20 20 20 20 20 20 21 20 20 20 20 20 19 19 19 19 19 20 20 20 20 20 21 21 21 22 23 24 25 26 27 28 28 28 29 29 29 29 29 29 30 30 30 31 31 31 31 31 32 32 33 34 35 36 36 35 35 35 35 35 35
16 16 16 16 16 17 18 19 19 20 20 20 20 21 21 21 21 21 21 21 21 21 21 22 22 21 21 21 21 21 21 20 20 20 20 20 20 20 20 20 20 20 21 21 21 21 22 22 22 23 24 25 26 27 28 29 29 29 30 30 30 30 31 31 31 31 31 32 32 32 33 33 33 33 34 35 36 37 37 37 37 36 36 36 36
17 17 17 17 18 19 20 20 21 21 22 21 20 20 20 21 21 22 23 22 22 22 23 23 23 23 23 22 22 21 21 20 20 21 21 21 21 21 21 21 21 21 21 21 22 22 23 23 24 25 26 27 27 28 28 29 29 30 31 31 31 31 32 31 31 31 31 32 33 33 34 34 34 35 35 36 37 38 38 38 38 38 38 37 37
18 19 19 19 20 21 21 21 21 21 20 19 19 19 19 19 19 21 23 23 23 23 23 23 24 24 23 23 23 22 21 21 21 22 22 22 22 22 22 21 21 21 22 22 22 23 23 24 25 26 27 27 28 28 29 30 30 31 32 32 32 32 32 32 32 32 32 32 33 34 34 35 35 36 37 38 39 39 39 39 39 39 39 39 38
20 21 20 20 21 21 22 22 21 20 19 18 18 18 19 19 19 21 22 22 22 22 23 23 23 24 23 24 24 23 22 22 22 23 23 23 23 23 23 22 22 22 22 23 23 24 25 25 26 27 27 28 29 29 30 30 31 32 32 32 32 32 32 32 33 33 33 33 34 34 34 35 36 37 38 39 40 40 40 40 40 40 40 40 40
20 21 21 23 23 22 21 21 21 20 19 19 19 20 20 20 21 22 21 21 22 22 23 23 23 23 23 23 23 23 22 22 22 23 23 23 23 23 23 23 23 24 24 24 25 25 26 27 27 27 28 29 29 30 30 31 31 32 32 32 32 32 33 33 33 33 34 34 35 35 36 36 37 38 38 39 40 41 41 40 40 40 40 41 41
21 21 22 23 23 22 20 19 20 20 20 20 21 22 22 22 22 22 21 21 22 23 23 23 22 23 23 23 23 23 23 23 22 22 23 23 23 23 23 24 24 24 24 25 26 26 27 28 28 29 29 30 30 31 31 32 32 32 32 32 33 32 32 33 33 34 34 34 35 36 36 37 37 38 39 39 40 40 40 40 40 40 41 41 42
21 21 21 21 21 21 19 19 19 20 21 21 22 23 23 23 23 22 22 22 23 24 23 23 22 22 23 23 24 23 23 23 23 23 23 23 23 24 24 24 24 25 25 26 26 27 28 29 30 31 31 31 32 32 32 33 33 33 33 33 33 32 32 33 34 34 34 35 35 36 36 37 37 38 39 40 40 40 40 40 40 41 41 42 42
21 21 21 21 21 21 20 20 20 21 21 22 22 23 23 24 24 23 23 22 23 23 24 23 22 22 23 24 24 24 23 24 24 24 24 24 24 24 25 25 26 27 27 28 28 29 29 31 32 32 32 32 33 33 33 34 33 33 32 33 33 33 34 34 35 35 35 35 36 37 37 38 38 39 39 39 39 38 38 39 40 40 41 41 42
23 23 22 22 22 23 22 21 21 21 22 22 23 23 23 24 24 24 24 23 23 23 24 23 22 22 22 24 24 24 24 25 25 25 25 25 25 26 26 27 28 29 30 31 31 31 31 33 33 33 33 33 34 34 34 33 32 32 32 33 34 35 35 35 35 35 35 35 36 37 38 38 38 38 38 37 37 37 37 38 38 39 40 40 41
24 24 24 23 23 24 24 23 23 23 23 24 24 24 24 24 25 25 25 24 24 24 24 23 23 23 23 23 24 24 25 25 24 24 25 26 26 27 29 30 31 32 33 33 33 32 33 34 34 34 34 35 34 34 34 33 32 33 34 34 35 36 36 36 35 35 35 35 36 37 37 37 37 37 36 35 35 35 36 36 36 37 38 38 38
25 25 24 24 24 24 25 25 25 25 25 25 26 25 25 25 25 26 26 25 25 24 24 24 24 24 24 24 24 24 25 25 25 26 27 28 29 30 31 32 32 33 34 35 34 34 35 35 35 35 35 35 34 34 34 34 34 35 35 35 36 36 36 36 35 34 34 35 36 36 36 36 36 36 35 34 34 34 35 35 35 36 36 36 38
26 25 25 25 25 25 25 25 26 26 26 27 27 27 26 26 26 27 27 27 25 24 24 24 24 24 25 24 24 25 26 27 28 29 30 30 32 33 33 34 34 34 35 35 34 34 35 36 36 35 35 35 35 35 35 35 35 35 35 36 37 37 36 36 35 34 34 35 36 37 36 36 35 35 35 34 34 34 34 35 35 36 36 37 39
26 26 26 26 26 26 26 26 26 27 27 27 28 28 28 28 28 28 28 27 26 24 25 25 25 25 25 25 25 25 26 27 29 30 31 32 33 34 34 35 35 35 34 34 34 34 35 36 36 35 35 36 36 35 35 35 35 36 37 37 37 36 36 36 36 36 35 36 37 37 37 35 34 35 35 34 33 34 35 36 36 37 37 38 39
26 27 27 28 28 27 28 28 28 28 28 28 28 28 29 29 29 29 28 28 26 25 25 26 26 26 25 25 25 26 27 28 28 29 31 32 33 34 34 35 35 35 34 34 35 35 36 36 36 36 36 36 35 35 35 35 36 36 37 37 36 36 36 37 37 37 37 37 37 37 36 34 33 34 34 34 34 34 35 36 37 37 38 40 41
28 29 29 29 29 29 29 29 30 30 29 28 27 28 29 29 30 29 28 28 26 25 25 26 26 25 24 24 25 26 27 27 27 28 30 31 32 33 34 34 34 34 34 35 35 36 36 36 36 36 36 35 35 35 35 36 37 37 38 37 37 37 37 37 37 37 36 35 35 35 35 33 33 34 34 34 34 34 35 37 38 39 40 41 43
29 30 30 31 30 31 31 31 31 31 30 28 28 28 28 29 29 28 28 27 26 25 25 25 26 25 24 24 25 26 26 25 26 28 30 31 32 33 34 34 35 35 35 35 35 35 35 35 36 36 35 35 35 36 37 37 38 38 37 37 36 36 36 35 35 35 34 33 33 33 34 33 34 34 34 34 34 35 35 37 38 40 41 43 44
29 30 30 31 31 31 32 32 31 31 29 28 28 28 27 27 27 27 27 27 26 25 25 26 26 25 24 24 25 25 26 26 27 29 30 31 33 34 35 35 35 35 35 35 36 36 35 35 35 36 36 36 36 38 38 38 37 36 36 35 34 34 34 34 34 33 33 32 31 32 34 34 33 34 35 34 35 35 36 37 39 40 42 43 45
28 29 29 29 30 31 31 31 31 30 29 28 28 27 26 25 26 26 26 26 25 24 25 25 25 24 24 25 26 26 27 28 29 30 31 32 33 33 33 34 34 34 35 34 35 34 34 35 35 35 36 36 37 38 38 37 36 35 34 33 33 33 33 33 33 33 33 32 31 32 34 34 33 34 35 35 35 36 37 38 39 40 43 45 47
28 29 29 30 30 30 31 31 29 29 28 27 26 26 26 25 25 25 24 24 24 23 24 25 24 24 25 26 26 27 29 30 30 31 31 32 31 31 31 32 32 33 33 33 33 33 33 33 34 34 35 36 37 36 35 34 34 33 33 33 33 33 33 32 32 33 33 32 31 31 32 33 32 33 34 35 35 36 37 38 39 41 43 45 46
28 28 29 29 29 29 29 28 27 26 26 25 25 25 25 25 24 23 23 22 22 23 24 24 25 25 26 26 26 28 30 30 30 30 30 30 30 31 31 31 32 32 31 31 32 32 33 33 34 35 35 35 35 34 33 33 33 32 32 32 32 32 32 32 33 33 33 31 30 30 31 32 32 33 34 34 35 35 36 38 40 41 43 43 43
Wind_Direction
263 297 341 356 2 8 9 5 12 18 17 16 15 12 3 359 359 356 355 351 349 349 348 348 348 347 348 349 347 346 347 346 343 340 336 331 322 314 314 314 302 287 280 271 263 258 254 251 246 239 235 235 235 237 236 235 235 234 235 236 236 236 235 236 238 240 241 243 243 242 242 242 242 243 244 244 247 249 252 254 255 258 259 257 257
272 287 313 333 340 343 347 343 342 352 355 355 359 358 351 349 349 348 347 345 347 347 345 346 345 345 347 348 349 348 350 350 345 340 336 333 328 320 315 316 309 292 285 279 269 264 259 256 251 243 239 237 237 238 239 239 239 239 239 238 238 239 239 238 238 241 242 244 245 245 245 244 244 245 245 246 247 249 252 255 255 256 258 257 256
264 279 292 309 318 323 326 325 325 332 343 344 341 342 342 342 341 341 342 342 345 345 343 344 344 344 344 346 348 347 349 349 347 342 336 335 334 327 319 315 310 297 287 282 276 270 263 258 256 250 245 242 240 240 240 241 241 241 242 241 240 241 242 241 240 240 242 244 246 247 247 246 246 246 247 247 248 250 251 254 255 255 256 256 255
255 264 272 291 303 309 309 310 313 316 327 331 327 328 332 334 334 336 338 339 342 341 340 340 341 342 341 343 344 344 346 346 346 345 340 338 335 330 323 316 310 303 291 283 278 275 270 263 259 255 251 247 245 243 242 242 243 243 244 243 243 242 243 243 243 242 242 244 245 247 248 248 248 247 248 248 249 250 251 253 254 255 255 255 254
253 263 269 282 294 300 300 303 308 310 316 319 322 323 324 328 330 332 333 335 336 336 336 336 338 339 339 340 339 340 343 343 346 348 345 342 338 333 327 319 310 304 297 287 280 276 273 268 264 259 255 252 248 246 244 244 244 244 245 246 245 244 244 244 244 244 244 244 246 247 249 250 250 250 250 250 250 251 252 252 253 255 255 254 253
253 264 271 279 288 293 295 300 302 305 311 313 315 316 319 323 325 327 329 330 331 332 331 332 334 334 335 336 335 337 340 341 346 348 347 345 342 339 332 323 313 306 299 290 284 280 275 272 267 263 260 257 253 251 249 248 246 244 245 247 247 247 246 245 245 246 246 246 247 248 249 250 251 251 251 251 252 252 252 253 253 254 255 255 253
253 265 275 280 286 290 294 295 294 300 307 308 310 310 315 320 320 321 323 324 326 326 325 326 328 327 329 330 330 333 335 338 342 341 345 346 342 342 338 331 322 312 302 294 289 284 280 276 271 267 264 261 259 257 255 254 252 249 248 249 249 249 249 248 247 246 247 247 248 249 249 250 251 251 252 252 252 253 253 253 253 253 254 255 254
255 266 278 283 285 289 293 292 293 299 303 304 308 309 313 316 315 316 315 317 318 318 317 319 319 320 321 322 325 328 330 335 337 336 342 342 337 339 340 336 330 319 307 298 290 285 284 283 278 272 267 265 263 261 258 256 256 254 253 252 251 252 253 252 250 247 247 247 248 249 250 251 252 253 253 253 253 253 253 253 253 253 254 254 255
256 266 276 283 286 290 292 291 293 299 300 302 305 306 310 311 310 310 310 311 312 311 312 312 312 313 313 314 318 321 325 329 329 330 333 331 331 335 335 336 336 329 316 304 296 289 288 286 281 276 271 268 266 265 262 259 258 257 256 255 254 255 255 254 253 249 247 248 249 249 250 251 252 253 254 255 254 254 254 254 253 253 253 254 254
255 266 275 280 285 288 290 289 291 294 296 298 301 303 305 305 304 305 307 308 308 308 308 308 308 309 308 307 310 315 320 323 321 323 323 322 327 328 327 332 333 335 329 317 313 305 296 291 285 280 275 272 270 269 268 265 263 261 260 258 257 257 257 256 255 252 249 249 249 249 250 250 251 253 253 254 255 255 254 254 253 253 252 253 253
259 266 274 281 283 285 287 287 288 289 291 295 298 298 299 301 302 304 306 307 307 307 307 305 304 305 305 306 308 311 315 317 316 318 317 317 321 319 321 327 326 330 332 326 324 320 308 297 292 286 280 278 277 274 272 270 268 267 265 262 260 259 259 259 257 255 253 251 250 249 250 250 251 252 253 253 254 254 254 254 253 253 252 251 251
266 270 274 280 283 284 286 285 285 286 289 293 294 295 298 302 304 304 306 307 305 305 305 304 304 304 303 304 306 308 312 315 313 312 311 312 316 315 317 324 322 321 324 324 322 320 314 305 298 292 287 283 280 279 278 276 273 271 269 266 264 262 261 260 259 257 256 254 251 250 250 251 251 252 253 254 254 254 254 254 254 253 252 251 251
268 271 273 278 282 285 286 283 282 284 286 290 293 298 302 304 305 305 306 306 304 302 303 304 304 304 301 301 304 306 311 313 308 309 310 311 315 314 314 319 322 318 317 319 319 317 313 308 301 296 294 289 285 286 285 283 280 276 274 272 269 266 264 262 261 260 258 256 255 253 252 252 252 252 252 254 254 254 254 254 254 253 253 252 251
269 271 273 277 281 285 286 283 282 284 285 290 296 300 303 304 303 303 301 302 303 301 302 301 301 305 306 306 304 302 308 310 308 310 310 311 315 315 312 316 321 318 316 315 317 318 312 307 302 298 296 291 289 289 286 285 285 282 279 278 276 272 269 267 264 263 261 259 258 257 256 254 254 253 253 253 254 254 254 253 253 252 252 252 251
270 271 274 277 281 284 285 283 283 286 289 293 296 297 299 299 298 299 298 297 297 297 300 300 301 307 307 305 304 301 304 307 308 311 310 311 313 313 312 313 316 317 315 314 314 314 311 306 302 299 297 294 291 288 286 285 285 285 282 280 278 276 273 272 269 267 265 263 261 260 259 257 255 255 254 254 254 254 253 252 252 252 253 253 252
271 272 274 277 279 281 281 283 285 289 292 294 294 293 295 295 294 296 296 296 296 295 297 299 301 304 301 301 303 303 304 302 302 308 310 309 307 310 311 306 310 314 312 312 312 310 308 306 303 301 298 296 293 289 287 286 285 286 285 281 279 277 275 274 273 272 270 268 266 264 262 260 258 256 256 255 255 254 253 252 252 253 253 253 253
270 270 273 275 277 278 280 283 287 290 293 294 294 292 291 292 294 295 295 296 297 297 297 297 298 299 298 298 299 299 306 305 302 303 304 302 299 303 307 302 305 310 308 309 310 308 306 306 305 304 302 299 296 293 290 288 286 286 287 285 281 279 276 275 273 273 272 271 270 269 267 264 261 259 257 256 256 254 254 253 253 254 254 254 253
269 269 270 274 277 279 280 285 290 292 294 295 295 293 291 292 294 296 296 296 296 296 295 292 294 295 294 294 292 293 299 300 298 298 296 297 296 296 299 301 301 300 301 305 304 305 305 305 304 303 303 302 299 297 296 293 291 289 289 287 285 282 279 277 275 273 272 271 271 271 269 268 265 263 260 259 257 256 255 255 255 254 254 254 253
267 268 269 274 277 280 283 290 295 295 297 298 296 294 294 294 293 294 294 294 294 293 291 290 291 291 291 292 292 292 294 293 292 293 291 293 296 295 291 294 300 298 298 302 299 302 305 302 302 301 301 303 302 300 298 297 296 294 293 291 289 287 284 281 278 276 274 273 271 271 270 269 268 266 264 262 260 258 257 256 255 255 254 254 253
266 266 269 274 277 283 288 295 299 299 299 299 297 295 295 295 293 292 291 291 291 289 290 291 291 290 290 292 292 293 293 290 290 291 290 289 290 290 285 290 301 300 297 300 299 300 302 299 299 300 298 299 301 301 299 297 296 295 296 295 292 291 289 286 283 281 278 276 275 273 271 270 269 268 267 265 263 261 259 257 255 255 255 254 253
264 265 268 273 278 285 291 297 302 303 301 299 297 296 296 295 293 292 291 290 289 287 286 288 287 289 290 289 289 291 291 290 289 287 286 288 288 288 286 289 296 294 291 295 297 299 299 297 299 298 296 296 298 299 298 297 296 295 295 295 292 290 289 288 286 284 282 281 279 277 275 273 271 270 269 267 266 264 262 259 257 256 255 255 254
264 268 271 274 279 285 292 299 303 304 301 298 297 297 296 294 292 291 289 288 288 286 284 284 284 286 287 285 285 288 290 291 290 288 285 285 285 286 287 289 291 290 291 292 294 298 296 294 297 296 294 297 297 297 297 296 295 295 295 295 292 290 288 286 285 284 283 282 281 279 277 276 274 272 270 269 268 267 265 262 260 258 256 255 255
266 270 271 273 279 285 292 298 301 302 300 298 297 296 296 295 291 288 287 287 286 284 283 281 281 283 282 282 283 284 287 289 291 293 292 287 286 286 287 289 288 287 289 290 291 294 292 289 292 293 292 296 297 297 297 296 295 294 295 294 292 291 288 286 285 284 283 282 281 281 279 278 276 274 273 271 269 268 267 265 263 260 258 257 255
266 267 270 272 278 284 290 295 298 299 298 297 296 295 296 296 292 288 286 285 284 283 282 280 280 280 279 279 280 283 286 287 287 289 290 290 289 287 286 287 288 286 288 291 291 291 291 290 292 292 292 294 297 297 297 299 297 294 295 295 293 292 289 287 285 284 283 282 281 281 280 279 278 276 275 273 271 270 268 267 265 263 261 259 257
264 266 270 272 279 285 289 292 294 295 295 296 296 295 296 296 293 289 286 284 283 283 281 281 280 279 279 279 281 283 284 284 284 286 288 289 287 286 286 288 289 288 288 288 290 291 291 291 291 292 291 292 295 296 298 301 299 296 297 298 296 295 292 289 286 284 283 282 281 280 280 279 278 277 275 274 273 271 270 269 267 265 263 261 259
265 268 270 273 279 286 288 290 291 294 294 294 295 295 295 295 295 291 287 285 284 283 282 281 280 279 279 280 281 283 284 284 284 284 285 286 286 286 288 289 288 287 287 285 286 288 289 288 287 287 288 289 292 295 297 300 300 298 299 300 300 298 295 292 289 287 285 283 281 280 279 279 278 277 276 274 273 271 270 269 268 266 265 263 261
267 269 271 273 277 283 286 288 290 293 294 294 294 295 295 295 294 292 289 286 284 282 282 281 280 279 278 279 280 281 283 285 284 284 285 285 286 286 287 287 286 286 287 286 285 285 287 288 286 285 288 288 289 293 295 297 298 297 298 299 299 298 295 293 291 289 287 285 283 282 280 279 278 277 276 274 273 272 270 269 268 267 265 264 262
268 269 271 274 278 281 284 285 288 290 292 292 292 293 295 296 294 292 289 286 284 282 282 281 280 280 279 279 280 280 281 281 281 282 283 283 283 283 283 284 285 286 287 288 288 287 286 288 287 286 287 287 288 291 293 294 294 295 296 297 297 297 295 292 292 290 289 287 285 284 282 281 279 277 276 275 273 272 271 270 268 267 266 264 263
267 270 273 277 280 282 284 286 288 290 291 292 291 290 291 293 293 292 289 286 284 283 284 283 282 281 280 280 280 280 279 279 279 280 280 281 281 281 282 283 284 285 287 288 289 288 287 288 288 288 288 289 289 291 292 292 291 292 294 294 294 294 293 291 290 289 289 288 287 285 283 282 280 278 277 276 274 272 271 270 269 268 266 265 263
267 272 275 279 281 283 285 287 289 290 291 291 290 290 289 288 288 288 288 286 284 284 285 285 284 282 280 279 279 279 278 277 277 278 279 280 281 281 282 283 283 285 286 288 288 287 287 287 288 289 290 290 289 290 290 290 289 290 292 292 292 292 292 291 289 288 287 287 287 286 284 282 281 279 277 276 275 274 272 270 269 268 267 265 264
267 272 276 279 281 283 286 289 289 291 293 291 289 289 289 288 286 285 285 285 284 284 285 285 285 284 282 280 279 278 277 276 276 277 278 280 281 282 281 282 283 284 286 287 287 286 286 287 287 289 289 289 288 288 289 289 289 289 290 291 291 291 290 290 289 287 286 287 287 286 284 283 281 279 277 275 275 274 273 271 269 268 267 266 264
268 272 277 279 281 284 288 290 290 291 293 293 291 290 289 288 287 286 285 283 282 282 284 285 284 282 282 281 280 279 278 277 277 277 278 279 280 281 281 282 283 284 285 286 286 286 287 288 288 289 289 289 288 288 289 289 289 289 289 290 290 290 290 290 289 288 286 287 287 286 284 283 282 280 278 276 275 274 273 272 269 267 266 265 264
268 272 276 279 282 286 288 290 290 291 292 292 291 291 291 289 288 288 286 283 281 281 283 284 282 279 279 280 280 280 278 277 277 277 277 278 280 280 281 281 282 284 285 286 287 287 289 290 290 291 290 289 288 287 288 288 289 289 290 290 290 290 290 290 290 289 287 287 287 286 284 282 281 280 279 277 276 274 273 272 270 268 266 265 264
268 272 275 279 284 288 289 289 290 290 290 288 288 290 293 292 290 289 287 284 283 283 284 284 281 278 277 277 278 279 278 277 277 277 277 277 278 279 280 281 282 284 285 287 287 288 289 292 292 291 291 290 289 288 288 288 289 289 290 290 290 290 290 290 290 290 288 288 287 286 284 282 281 280 278 277 276 275 273 272 270 268 265 264 264
269 271 273 277 284 289 290 288 287 288 288 287 288 290 292 294 296 294 288 283 283 285 285 284 282 279 276 275 276 277 278 277 276 276 277 276 277 279 280 281 282 284 285 286 287 287 289 292 293 292 292 292 291 291 291 290 290 290 290 290 290 290 291 291 290 290 289 289 288 287 285 283 282 280 279 277 276 275 274 272 271 268 265 264 264
271 271 274 277 281 286 288 286 284 284 285 287 290 291 292 295 299 298 291 284 284 286 285 284 282 280 277 274 275 276 277 277 277 277 276 276 277 279 280 282 282 284 285 286 287 287 289 292 293 293 293 293 293 293 294 293 292 291 290 290 290 290 291 291 291 290 290 290 289 287 286 285 283 282 279 277 276 275 274 272 270 268 266 265 265
274 275 277 278 279 282 285 286 284 282 284 287 290 291 292 294 298 299 293 287 287 288 286 283 281 280 278 275 274 275 275 277 278 278 277 277 278 279 281 284 284 284 286 287 288 289 290 292 293 293 293 294 293 293 295 295 294 292 290 290 290 291 291 292 291 291 290 290 289 288 286 285 284 282 280 278 277 275 273 271 269 268 267 266 265
274 276 278 278 278 280 284 286 285 283 285 287 289 291 292 292 295 298 294 288 288 289 287 283 280 280 280 277 275 273 273 276 277 278 278 277 278 280 283 285 284 285 288 289 289 290 291 292 294 293 292 292 293 294 295 295 295 293 291 291 291 292 292 292 292 291 290 290 289 289 287 285 283 282 281 280 278 275 272 270 268 268 267 265 264
272 274 275 277 277 279 282 284 284 284 285 287 289 290 292 291 293 296 295 290 289 290 289 285 281 281 281 280 278 275 274 276 278 278 278 277 279 282 284 286 286 286 287 288 289 290 293 294 296 296 294 293 294 294 294 295 294 292 291 292 292 293 293 293 292 291 290 290 290 289 288 285 284 282 281 280 278 275 273 270 269 268 267 265 263
270 271 272 274 275 277 280 282 283 284 284 285 287 288 290 291 290 292 293 290 289 290 289 286 283 283 283 281 280 279 277 276 276 277 278 279 280 282 285 287 288 287 288 289 289 290 293 296 297 297 295 294 294 294 295 295 294 292 292 293 293 294 294 293 292 291 291 290 291 290 288 286 285 283 282 280 278 275 273 272 271 270 268 266 263
267 268 270 272 273 275 278 280 283 285 284 283 284 285 288 289 289 290 290 287 287 288 288 285 283 284 283 281 280 281 280 278 277 279 281 282 283 284 285 287 288 288 289 288 288 289 292 295 296 297 296 294 294 294 295 295 293 293 294 294 294 295 295 293 292 291 291 291 291 290 289 288 286 285 283 281 278 276 275 274 273 272 270 267 264
265 266 268 271 272 273 276 277 279 282 283 282 281 281 284 287 288 289 288 286 285 286 287 285 283 283 282 281 280 279 277 276 279 281 283 285 285 285 286 287 288 289 289 288 287 288 291 293 294 295 295 294 293 294 294 295 294 293 294 294 295 295 294 293 292 291 291 292 292 290 289 288 287 285 283 281 279 278 277 275 274 273 271 269 266
265 266 268 270 272 274 276 276 277 278 280 280 279 279 281 284 286 287 287 284 283 284 285 284 283 283 282 281 280 279 277 276 279 281 283 285 286 286 286 287 288 289 289 288 288 289 291 292 292 293 293 293 294 294 294 295 294 294 295 295 295 295 294 293 292 292 292 292 292 291 290 289 288 285 283 281 280 278 277 276 275 274 273 271 269
268 269 270 271 273 277 278 277 277 279 280 279 278 277 279 281 283 284 285 283 282 283 284 284 285 284 283 281 280 280 280 279 279 281 283 285 286 286 286 287 288 289 288 287 289 290 290 290 291 291 292 294 295 294 295 296 295 295 296 296 295 294 293 292 292 292 292 292 292 291 290 290 288 286 283 281 280 279 278 277 276 276 274 273 272
271 272 272 273 275 277 279 278 279 281 282 280 277 276 278 280 280 280 282 283 282 282 283 284 285 285 283 282 282 283 283 281 280 282 284 286 286 287 288 289 290 289 287 287 288 289 288 288 289 291 293 294 295 295 295 296 295 295 296 296 294 294 293 292 292 292 292 292 292 291 291 290 288 286 284 282 281 280 279 279 279 278 277 276 275
274 274 273 274 275 277 279 280 281 282 282 279 276 275 277 279 278 278 280 282 281 280 281 283 285 284 283 284 285 286 286 283 282 283 285 287 288 289 290 291 290 289 288 288 288 287 287 288 289 291 293 294 294 294 295 296 296 296 296 295 294 294 292 292 291 291 292 292 292 291 291 290 288 286 285 285 284 282 282 282 282 281 279 278 277
277 277 275 274 275 277 279 280 281 282 281 278 275 275 276 276 276 276 278 280 279 278 279 281 282 282 282 284 286 287 287 285 284 286 287 289 290 291 291 290 290 289 289 289 289 288 289 289 290 291 292 293 294 295 296 296 296 296 296 295 294 293 292 292 291 291 292 292 292 292 291 290 290 288 287 287 287 286 285 285 283 282 281 280 280
278 278 278 277 277 279 279 280 282 281 279 276 275 275 275 274 274 276 277 277 276 277 278 279 280 279 280 284 288 288 287 287 288 288 290 290 291 291 290 290 290 290 290 290 290 289 289 290 290 291 292 293 294 295 296 296 295 295 295 295 294 293 292 291 291 291 293 294 294 293 292 291 291 290 289 289 289 288 287 287 286 285 283 283 283
279 280 281 281 280 280 280 281 281 280 277 276 275 274 273 273 275 276 275 273 273 275 278 279 278 278 282 286 288 289 289 290 291 291 292 292 292 291 290 290 290 291 291 290 290 290 289 289 290 291 292 293 294 295 295 295 295 295 295 294 294 294 292 291 292 293 294 296 296 294 292 292 292 291 291 291 290 289 289 289 288 287 286 286 287
282 281 282 282 282 282 281 281 280 278 276 275 273 271 271 273 274 274 272 272 272 275 279 279 277 280 285 286 287 289 292 293 293 293 293 293 293 292 292 292 291 291 291 291 291 291 290 290 290 291 292 293 294 295 295 294 293 294 294 293 294 294 293 292 293 294 295 296 297 295 293 293 293 293 293 293 291 291 291 292 291 290 290 291 290
284 283 283 282 282 282 281 280 278 275 275 274 271 269 271 271 271 270 271 272 273 276 280 280 278 282 286 286 287 291 293 294 295 295 295 294 295 295 295 294 293 292 293 293 293 293 293 292 292 293 294 295 295 296 295 293 292 292 292 292 292 293 292 293 294 295 296 296 297 296 294 293 294 294 295 295 293 293 295 296 295 295 295 294 292